Regional Weather Roundup
Issued by NWS Newport/Morehead, NC

Current Version | Previous Version | Graphics & Text | Print | Product List | Glossary On
Versions: 1 2 3 4 5 6 7 8 9 10 11 12 13 14 15 16 17 18 19 20 21 22 23 24 25 26 27 28 29 30 31 32 33 34 35 36 37 38 39 40 41 42 43 44 45 46 47 48 49 50
000
ASUS42 KMHX 032324
RWRMHX
WEATHER ROUNDUP FOR EASTERN NORTH CAROLINA
NATIONAL WEATHER SERVICE NEWPORT/MOREHEAD CITY NC
700 PM EDT SUN MAY 03 2015

NOTE: "FAIR" INDICATES FEW OR NO CLOUDS BELOW 12,000 FEET
WITH NO SIGNIFICANT WEATHER AND/OR OBSTRUCTIONS TO VISIBILITY

NCZ015>017-031-032-045>047-102-103-040000-
NORTH COAST

CITY           SKY/WX    TMP DP  RH WIND       PRES   REMARKS
EDENTON        PTCLDY    73  51  46 S5        30.15S
ELIZABETH CITY PTCLDY    73  49  42 S7        30.15R
KITTY HAWK     CLEAR     72  42  34 S6        30.15S
MANTEO         PTCLDY    69  49  49 S8        30.17S

$$

NCZ045>047-081-094-103-104-040000-
CENTRAL COAST

CITY           SKY/WX    TMP DP  RH WIND       PRES   REMARKS
FRISCO         CLEAR     64  56  75 SW5       30.18R
SWANQUARTER      N/A     72 N/A N/A S7        30.12S

$$

NCZ095-097-098-100-101-040000-
SOUTHERN COAST

CITY           SKY/WX    TMP DP  RH WIND       PRES   REMARKS
BEAUFORT       CLEAR     69  55  60 SW10      30.18S
CEDAR ISLAND     N/A     73 N/A N/A S7        30.21S
JACKSONVILLE   SUNNY     72  41  32 S9        30.17R
PINEY ISLAND   CLEAR    N/A N/A N/A S10       30.18R
WILMINGTON     SUNNY     72  46  39 S9        30.18R


$$

NCZ011>013-027>030-043-044-078>080-089-090>093-098-040000-
COASTAL PLAIN

CITY           SKY/WX    TMP DP  RH WIND       PRES   REMARKS
AHOSKIE        MOSUNNY   72  49  44 CALM      30.15S
CLINTON        SUNNY     77  50  38 CALM      30.16S
ELIZABETHTOWN  SUNNY     75  44  33 S7        30.16S
GOLDSBORO      SUNNY     76  44  31 CALM      30.14S
GREENVILLE     SUNNY     73  50  43 W3        30.17S
HAVELOCK       PTCLDY    72  41  32 S9        30.19R
KENANSVILLE    SUNNY     75  41  29 CALM      30.17R
KINSTON        MOSUNNY   77  39  25 CALM      30.17R
NEW BERN       MOSUNNY   72  41  32 S8        30.17S
RICHLANDS      SUNNY     73  43  33 S9        30.18R
ROCKY MOUNT    MOSUNNY   76  49  38 CALM      30.15S
WASHINGTON     MOSUNNY   71  51  49 CALM      30.17R
WHITEVILLE     SUNNY     74  45  36 SE7       30.17R

$$

AMZ130-135-150-152-154-156-158-170-250-252-270-ANZ085-086-088-633-658-670-040000-
MARINE OBSERVATIONS

STATION/POSITION TIME  TEMP    WIND        PRES    WAVE   SWELL
                       AIR SEA DIR/SP/G            HT/PER HT/PER
                 (UTC) (F)     (DEG/KT/KT) (MB)    (FT/S) (FT/S)
CHESAPEAKE LIGHT 2300   70     190/ 18/ 19 1020.8
64 E VA BEACH    2250   64 63  190/  6/  6 1020.8    5/11   5/11
DUCK             2300   65 55  160/ 11/ 12 1020.0
2 E DUCK         2211      60                N/A     5/11   3/11
OREGON INLET     2300   67 64  170/  6/  7 1021.5
13E OREGON INLT  2300      55                N/A     4/11   3/11
HATTERAS CG      2300   69 65  200/  5/  7 1021.6
DIAMOND BUOY     2250   67 61  220/  4/  6 1022.2    5/ 9   5/ 9
CAPE LOOKOUT     2300   69     210/  6/  8 1021.9
BEAUFORT LAB     2300   69 65  210/  5/  7 1021.3
27 SE WRIGHTSVLE 2300   69 73  200/ 10/ 12   N/A
5 SE WRIGHTSVLE  2208   70 68  180/ 10/ 12 1021.8
225 S CAPE HAT   2250   69 70   30/ 14/ 16 1022.7    9/11   8/11
41 SE CHARLESTON 2250   72 76  140/  6/  8 1021.7    2/10   2/10

$$


USA.gov is the U.S. government's official web portal to all federal, state and local government web resources and services.